Regional Weather Roundup
Issued by NWS

Home | Current Version | Previous Version | Graphics & Text | Print | Product List | Glossary On
Versions: 1 2 3 4 5 6 7 8 9 10 11 12 13 14 15 16 17 18 19 20 21 22 23 24 25 26 27 28 29 30 31 32 33 34 35 36 37 38 39 40 41 42 43 44 45 46 47 48 49 50
000
ASUS43 KDMX 201701
RWRIA

WEATHER ROUNDUP FOR IOWA
NATIONAL WEATHER SERVICE DES MOINES IA
1200 PM CDT SUN AUG 20 2017

NOTE: "FAIR" INDICATES FEW OR NO CLOUDS BELOW 12,000 FEET WITH NO
SIGNIFICANT WEATHER AND/OR OBSTRUCTIONS TO VISIBILITY.

* - THESE STATIONS ARE NOT NWS STATIONS...THUS NOT UNDER NWS
QUALITY CONTROL.  THEY ALSO DO NOT REPORT WEATHER SUCH
AS PRECIPITATION OR FOG.

IAZ001>003-012>014-020>022-031>034-043>046-201800-
   NORTHWEST IOWA

CITY           SKY/WX    TMP DP  RH WIND       PRES   REMARKS
CARROLL *      SUNNY     79  68  69 E5        29.97F HX  81
DENISON *      SUNNY     79  66  65 VRB3      29.99S HX  81
LE MARS *      SUNNY    100 N/A N/A S10       29.96S
ORANGE CITY *  SUNNY     79  68  69 S6        29.97S HX  81
SHELDON *      MOSUNNY   81  66  61 SE7       29.95F HX  83
SIOUX CITY     SUNNY     79  68  69 S10       29.97R HX  81
SPENCER        MOSUNNY   79  64  60 SW7       29.98S HX  81
STORM LAKE *     N/A     77  68  73 S9        29.98F
$$

IAZ055>058-069>071-079>083-090>094-201800-
   SOUTHWEST IOWA

CITY           SKY/WX    TMP DP  RH WIND       PRES   REMARKS
ATLANTIC *     CLOUDY    70  68  94 CALM      29.99R
AUDUBON *      CLOUDY    79  70  73 CALM      29.99R HX  81
CLARINDA *     CLOUDY    68  66  94 SW10G23   30.01R FOG
COUNCIL BLFS * CLOUDY    72  68  88 W6        29.97F
CRESTON *      CLOUDY    70  66  88 CALM      30.00R
HARLAN  *      SUNNY     75  68  78 VRB6      30.02R
LAMONI         CLOUDY    75  63  66 N6        29.94S
RED OAK *      LGT RAIN  68  64  88 SW9G21    29.98F
$$

IAZ047>049-059>061-072>074-084-201800-
   CENTRAL IOWA

CITY           SKY/WX    TMP DP  RH WIND       PRES   REMARKS
AMES           MOSUNNY   79  67  66 SE3       29.95F HX  81
ANKENY *       CLOUDY    77  66  69 SW5       29.96S
BOONE *        CLOUDY    79  64  61 CALM      29.96F HX  81
CHARITON *     MOSUNNY   77  66  69 W7G13     29.94F
DES MOINES     PTSUNNY   78  66  66 N6        29.95S HX  80
GRINNELL*      MOSUNNY   78  66  67 S9        29.96F
KNOXVILLE *    CLOUDY    79  64  61 W6        29.93F HX  81
MARSHALLTOWN   SUNNY     79  66  64 SE12      29.94F HX  81
NEWTON *       SUNNY     77  68  73 S9G16     29.94F
PELLA *        SUNNY     81  65  58 S3        29.95F HX  83
PERRY *          N/A     78  68  72 CALM      29.97S HX  80
$$

IAZ004>006-015-016-023>025-035-036-201800-
   NORTH CENTRAL IOWA

CITY           SKY/WX    TMP DP  RH WIND       PRES   REMARKS
ALGONA *       SUNNY     81  66  61 SE8       29.97F HX  83
CLARION *      SUNNY     79  68  69 S9        29.97F HX  81
ESTHERVILLE    SUNNY     78  66  66 SW7       29.98R HX  80
FORT DODGE *   SUNNY     81  64  57 E10       29.97F HX  82
MASON CITY     SUNNY     81  63  54 S14       29.99F HX  82
FOREST CITY *    N/A     81  64  57 SW6       29.98F HX  82
WEBSTER CITY * SUNNY     81  64  57 SE8       29.94F HX  82
IOWA FALLS *     N/A     80  65  61 S5        29.99F HX  82
$$

IAZ007>011-017>019-026>030-037>042-050>054-066-201800-
   NORTHEAST IOWA

CITY           SKY/WX    TMP DP  RH WIND       PRES   REMARKS
CEDAR RAPIDS   CLOUDY    73  68  84 CALM      29.95F
CHARLES CITY * CLOUDY    77  66  69 S10       29.99F
CLINTON *      PTSUNNY   73  68  84 NE5       30.01F
DECORAH *      CLOUDY    75  66  73 VRB5      30.00F
DUBUQUE        CLOUDY    73  64  73 CALM      30.02F
MONTICELLO *   CLOUDY    72  66  83 CALM      29.97F
OELWEIN *      CLOUDY    73  66  78 NW5       30.00F
WATERLOO       CLOUDY    78  61  55 SE8       29.95F HX  80
$$

IAZ064-065-067-068-078-201800-
   EAST CENTRAL IOWA

CITY           SKY/WX    TMP DP  RH WIND       PRES   REMARKS
DAVENPORT      PTSUNNY   74  66  76 NE3       30.02F
IOWA CITY      CLOUDY    73  68  84 SE9       29.98F
MUSCATINE *    CLOUDY    77  66  69 NE12      29.95F
QUAD CITIES    CLOUDY    79  64  60 N3        29.99F HX  81
$$

IAZ062-063-075>077-085>089-095>099-201800-
   SOUTHEAST IOWA

CITY           SKY/WX    TMP DP  RH WIND       PRES   REMARKS
BURLINGTON     MOSUNNY   75  68  78 E8        29.97F
FAIRFIELD *    CLOUDY    82  66  57 SW7       29.93F HX  85
FORT MADISON * CLOUDY    75  72  88 E8        29.98S
KEOKUK *       CLOUDY    75  68  78 SE14      29.95F
OSKALOOSA *      N/A     80  67  63 SW3       29.94F HX  82
WASHINGTON *   PTSUNNY   75  68  78 NE5       29.95F
$$

ABBREVIATIONS USED IN REMARKS
   TC - TEMPERATURES IN CELSIUS
  WCI - WIND CHILL INDEX
   HX - HEAT INDEX
  VSB - VISIBILITY
$$





USA.gov is the U.S. government's official web portal to all federal, state and local government web resources and services.